FW1341 Weather Reports


Display with metric or nautical units.
time (UTC)temp
F
wind
direction
speed
MPH
gust
MPH
rain 1hr
in
rain 24hr
in
rain mn
in
humidity
%
barometer
mb
20260904034822 83 292 6.0 43.0 0.04 0.04 0.08 74 1013.7
20260904034323 86 334 2.0 8.0 0.00 0.00 0.00 77 1011.6
20260904033823 86 10 2.0 6.0 0.00 0.00 0.00 77 1010.8
20260904033323 86 302 2.0 6.0 0.00 0.00 0.00 78 1010.3
20260904032321 85 207 1.0 3.0 0.00 0.00 0.00 78 1010.0
20260904031819 85 215 1.0 3.0 0.00 0.00 0.00 78 1010.0
20260904031318 86 290 0.0 2.0 0.00 0.00 0.00 78 1009.9
20260904030817 86 302 0.0 2.0 0.00 0.00 0.00 78 1009.8
20260904030318 86 217 1.0 4.0 0.00 0.00 0.00 77 1010.0
20260904025815 86 252 1.0 5.0 0.00 0.00 0.00 78 1010.1
20260904025316 86 282 1.0 5.0 0.00 0.00 0.00 77 1010.1
20260904024810 86 250 1.0 4.0 0.00 0.00 0.00 77 1010.3
20260904024310 86 278 1.0 6.0 0.00 0.00 0.00 78 1010.4
20260904022809 86 235 1.0 5.0 0.00 0.00 0.00 78 1010.6
20260904022309 86 219 1.0 5.0 0.00 0.00 0.00 78 1010.5
20260904021803 86 208 0.0 4.0 0.00 0.00 0.00 78 1010.3
20260904020258 86 246 1.0 4.0 0.00 0.00 0.00 77 1010.5
20260904015250 86 188 1.0 3.0 0.00 0.00 0.00 76 1010.5
20260904014751 86 238 1.0 4.0 0.00 0.00 0.00 76 1010.5
20260904014253 86 191 2.0 5.0 0.00 0.00 0.00 76 1010.5
20260904013751 86 187 2.0 5.0 0.00 0.00 0.00 75 1010.5
20260904013251 87 205 2.0 5.0 0.00 0.00 0.00 75 1010.4
20260904012751 87 211 2.0 6.0 0.00 0.00 0.00 75 1010.5
20260904011247 87 212 2.0 5.0 0.00 0.00 0.00 75 1010.4
20260904010747 87 259 2.0 5.0 0.00 0.00 0.00 75 1010.4
20260904010245 87 217 1.0 4.0 0.00 0.00 0.00 76 1010.5
20260904005746 87 181 1.0 4.0 0.00 0.00 0.00 76 1010.5
20260904005241 87 210 2.0 4.0 0.00 0.00 0.00 76 1010.6
20260904004741 87 156 2.0 4.0 0.00 0.00 0.00 76 1010.7
20260904004240 87 200 1.0 4.0 0.00 0.00 0.00 76 1010.8
20260904003239 87 222 2.0 6.0 0.00 0.00 0.00 75 1011.1
20260904002739 87 214 2.0 6.0 0.00 0.00 0.00 75 1011.1
20260904002236 87 203 1.0 4.0 0.00 0.00 0.00 75 1011.0
20260904001736 88 172 1.0 4.0 0.00 0.00 0.00 74 1011.0
20260904001236 88 283 1.0 4.0 0.00 0.00 0.00 74 1011.1
20260904000735 88 249 1.0 6.0 0.00 0.00 0.00 74 1011.1
20260904000233 88 207 1.0 6.0 0.00 0.00 0.00 74 1011.0
20260903235734 88 219 1.0 5.0 0.00 0.00 0.00 74 1010.7
20260903235226 88 191 1.0 3.0 0.00 0.00 0.00 74 1010.8
20260903234725 88 230 1.0 5.0 0.00 0.00 0.00 73 1010.7
20260903234224 88 197 2.0 6.0 0.00 0.00 0.00 73 1010.5
20260903233721 88 186 1.0 6.0 0.00 0.00 0.00 73 1010.4
20260903233222 88 228 1.0 4.0 0.00 0.00 0.00 72 1010.4
20260903232716 88 215 2.0 5.0 0.00 0.00 0.00 72 1010.3
20260903232212 88 282 2.0 6.0 0.00 0.00 0.00 72 1010.1
20260903231210 89 199 3.0 6.0 0.00 0.00 0.00 71 1010.3
20260903230708 89 210 2.0 6.0 0.00 0.00 0.00 70 1010.2
20260903225703 90 256 2.0 7.0 0.00 0.00 0.00 69 1010.1
20260903225203 90 197 3.0 6.0 0.00 0.00 0.00 69 1010.1
20260903224703 90 190 3.0 7.0 0.00 0.00 0.00 68 1010.1
20260903223703 91 195 2.0 6.0 0.00 0.00 0.00 66 1009.9
20260903223157 92 229 2.0 9.0 0.00 0.00 0.00 66 1010.0
20260903222656 92 210 3.0 10.0 0.00 0.00 0.00 66 1010.0
20260903222158 92 207 3.0 10.0 0.00 0.00 0.00 65 1009.9
20260903221657 92 207 2.0 8.0 0.00 0.00 0.00 64 1009.9
20260903221157 92 271 3.0 7.0 0.00 0.00 0.00 64 1009.9
20260903220656 92 214 3.0 8.0 0.00 0.00 0.00 64 1009.9
20260903215153 92 159 3.0 8.0 0.00 0.00 0.00 63 1009.9
20260903214651 93 137 3.0 9.0 0.00 0.00 0.00 62 1009.9
20260903214150 92 211 3.0 9.0 0.00 0.00 0.00 63 1010.0
20260903213651 93 207 3.0 7.0 0.00 0.00 0.00 62 1010.0
20260903213149 93 226 2.0 6.0 0.00 0.00 0.00 62 1010.0
20260903212647 93 205 3.0 7.0 0.00 0.00 0.00 61 1010.0
20260903212146 94 248 3.0 7.0 0.00 0.00 0.00 61 1010.1
20260903211647 94 193 2.0 8.0 0.00 0.00 0.00 60 1010.0
20260903210646 94 203 2.0 6.0 0.00 0.00 0.00 60 1010.0
20260903210142 93 225 3.0 8.0 0.00 0.00 0.00 61 1010.1
20260903205641 93 186 4.0 10.0 0.00 0.00 0.00 61 1010.1
20260903205140 93 214 4.0 11.0 0.00 0.00 0.00 60 1010.1
20260903204640 93 266 4.0 11.0 0.00 0.00 0.00 58 1010.2
20260903204141 93 194 4.0 13.0 0.00 0.00 0.00 58 1010.2
20260903203639 93 218 3.0 13.0 0.00 0.00 0.00 59 1010.2
20260903203140 93 203 3.0 10.0 0.00 0.00 0.00 59 1010.3
20260903202632 93 218 4.0 10.0 0.00 0.00 0.00 59 1010.4
20260903202133 94 181 3.0 8.0 0.00 0.00 0.00 58 1010.4
20260903201633 94 262 2.0 7.0 0.00 0.00 0.00 58 1010.6
20260903201133 93 262 2.0 7.0 0.00 0.00 0.00 59 1010.7
20260903200634 93 211 2.0 6.0 0.00 0.00 0.00 59 1010.7
20260903200133 93 212 3.0 7.0 0.00 0.00 0.00 58 1010.8
20260903195125 93 338 3.0 9.0 0.00 0.00 0.00 56 1011.0
20260903194623 92 255 4.0 9.0 0.00 0.00 0.00 58 1011.1
20260903194121 92 156 3.0 9.0 0.00 0.00 0.00 57 1011.2
20260903193621 92 240 2.0 8.0 0.00 0.00 0.00 58 1011.1
20260903192614 91 138 3.0 7.0 0.00 0.00 0.00 60 1011.5
20260903192115 91 181 3.0 7.0 0.00 0.00 0.00 60 1011.5
20260903191116 91 212 3.0 7.0 0.00 0.00 0.00 63 1011.4
20260903190616 90 205 3.0 7.0 0.00 0.00 0.00 63 1011.6
20260903190109 91 195 1.0 6.0 0.00 0.00 0.00 62 1011.7
20260903185607 90 342 2.0 5.0 0.00 0.00 0.00 64 1011.8
20260903185108 90 290 3.0 6.0 0.00 0.00 0.00 64 1011.9
20260903184605 90 222 3.0 9.0 0.00 0.00 0.00 64 1012.0
20260903184108 90 200 3.0 9.0 0.00 0.00 0.00 63 1011.9
20260903183608 89 249 3.0 8.0 0.00 0.00 0.00 64 1011.8
20260903183104 89 215 3.0 9.0 0.00 0.01 0.00 64 1011.8
20260903182103 89 235 3.0 7.0 0.00 0.03 0.00 64 1012.0
20260903181105 88 176 2.0 5.0 0.00 0.04 0.00 65 1011.9
20260903180604 88 240 3.0 7.0 0.00 0.05 0.00 66 1011.8
20260903175604 88 299 3.0 9.0 0.00 0.05 0.00 65 1012.0
20260903174602 88 206 2.0 6.0 0.00 0.05 0.00 67 1012.4
20260903174102 87 240 2.0 6.0 0.00 0.05 0.00 68 1012.6
20260903173102 87 253 2.0 6.0 0.00 0.05 0.00 68 1012.9
20260903172603 88 309 2.0 5.0 0.00 0.05 0.00 68 1013.0
20260903172104 87 323 1.0 6.0 0.00 0.05 0.00 68 1013.1
20260903171557 87 328 1.0 6.0 0.00 0.05 0.00 67 1013.2
20260903171055 87 296 2.0 8.0 0.00 0.05 0.00 69 1013.2
20260903170554 85 225 3.0 8.0 0.00 0.05 0.00 71 1013.3
20260903165052 85 180 1.0 8.0 0.00 0.05 0.00 72 1013.3
20260903164552 84 190 2.0 8.0 0.00 0.05 0.00 75 1013.5
20260903164048 83 318 1.0 5.0 0.00 0.05 0.00 76 1013.6
20260903163547 83 255 1.0 5.0 0.00 0.05 0.00 78 1013.6
20260903162543 82 325 1.0 4.0 0.00 0.05 0.00 78 1014.1
20260903162045 82 304 2.0 5.0 0.00 0.05 0.00 79 1014.3
20260903161537 82 354 2.0 8.0 0.00 0.05 0.00 79 1014.4
20260903161035 82 340 2.0 8.0 0.00 0.05 0.00 80 1014.5
20260903160536 82 13 2.0 7.0 0.00 0.05 0.00 81 1014.3
20260903160036 82 358 3.0 13.0 0.00 0.05 0.00 81 1014.5
20260903155536 82 46 3.0 14.0 0.00 0.05 0.00 80 1015.2
20260903155037 83 330 3.0 14.0 0.00 0.05 0.00 80 1015.2
20260903154534 83 330 1.0 8.0 0.00 0.05 0.00 80 1015.0
20260903154033 83 15 1.0 4.0 0.00 0.05 0.00 81 1014.8
20260903153032 83 15 1.0 5.0 0.00 0.05 0.00 81 1014.4
20260903152532 82 235 1.0 5.0 0.00 0.05 0.00 82 1014.2
20260903152031 82 75 1.0 5.0 0.00 0.05 0.00 82 1014.1
20260903151534 82 210 1.0 4.0 0.00 0.05 0.00 83 1014.2
20260903151028 81 228 2.0 6.0 0.00 0.05 0.00 83 1014.2
20260903150528 81 300 2.0 6.0 0.00 0.05 0.00 84 1014.0
20260903150030 81 173 3.0 9.0 0.00 0.05 0.00 84 1014.1
20260903145028 81 236 3.0 8.0 0.00 0.05 0.00 84 1014.1
20260903144528 81 217 3.0 8.0 0.00 0.05 0.00 84 1014.0
20260903144028 81 197 3.0 8.0 0.00 0.05 0.00 85 1014.0
20260903143029 81 210 3.0 7.0 0.00 0.05 0.00 85 1013.8
20260903142527 81 219 3.0 7.0 0.00 0.05 0.00 85 1013.8
20260903142029 80 222 3.0 8.0 0.00 0.05 0.00 86 1013.6
20260903141529 79 160 3.0 8.0 0.00 0.05 0.00 87 1013.6
20260903141027 79 188 2.0 7.0 0.00 0.05 0.00 88 1013.9
20260903140527 78 203 2.0 6.0 0.00 0.05 0.00 88 1013.7
20260903135519 78 218 3.0 6.0 0.00 0.05 0.00 88 1013.5
20260903135015 78 201 3.0 6.0 0.00 0.05 0.00 88 1013.6
20260903134515 78 179 2.0 6.0 0.00 0.05 0.00 88 1013.4
20260903134009 78 215 3.0 7.0 0.00 0.05 0.00 87 1013.4
20260903133508 78 210 2.0 7.0 0.00 0.05 0.00 87 1013.6
20260903133006 78 190 1.0 4.0 0.00 0.05 0.00 87 1013.8
20260903132507 78 217 1.0 4.0 0.00 0.05 0.00 87 1013.9
20260903132006 78 205 0.0 2.0 0.00 0.05 0.00 87 1014.1
20260903131507 78 196 0.0 2.0 0.00 0.05 0.00 87 1014.3
20260903131005 78 177 0.0 2.0 0.00 0.05 0.00 88 1014.4
20260903130505 78 113 0.0 2.0 0.00 0.05 0.00 88 1014.5
20260903130006 78 148 0.0 2.0 0.00 0.05 0.00 89 1014.4
20260903125501 77 131 0.0 2.0 0.00 0.05 0.00 90 1014.5
20260903124459 76 64 0.0 3.0 0.00 0.05 0.00 91 1014.9
20260903124001 76 85 1.0 3.0 0.00 0.05 0.00 91 1014.9
20260903123459 76 123 1.0 5.0 0.00 0.05 0.00 91 1015.0
20260903123000 76 79 1.0 5.0 0.00 0.05 0.00 91 1015.1
20260903122501 76 58 1.0 4.0 0.00 0.05 0.00 92 1015.0
20260903122000 76 96 1.0 4.0 0.00 0.05 0.00 92 1015.1
20260903121501 76 92 1.0 5.0 0.00 0.05 0.00 92 1015.2
20260903120958 76 113 2.0 6.0 0.00 0.05 0.00 92 1015.4
20260903120455 76 101 2.0 6.0 0.00 0.05 0.00 92 1015.3
20260903115951 75 57 2.0 7.0 0.00 0.05 0.00 92 1015.3
20260903115447 75 90 2.0 8.0 0.00 0.05 0.00 92 1015.2
20260903114943 75 27 3.0 8.0 0.00 0.05 0.00 92 1015.4
20260903114440 75 32 3.0 7.0 0.00 0.05 0.00 92 1015.5
20260903113431 75 49 5.0 10.0 0.00 0.05 0.00 93 1015.5
20260903112925 75 29 4.0 10.0 0.00 0.05 0.00 93 1015.4
20260903112419 74 70 2.0 8.0 0.00 0.05 0.00 93 1015.0
20260903111917 74 26 1.0 4.0 0.00 0.05 0.00 93 1014.6
20260903110906 74 78 1.0 4.0 0.00 0.05 0.00 93 1014.4
20260903110403 74 43 1.0 8.0 0.00 0.05 0.00 94 1014.4
20260903105857 74 53 3.0 8.0 0.00 0.05 0.00 94 1014.3
20260903105351 74 64 3.0 7.0 0.00 0.05 0.00 94 1014.3
20260903104845 74 15 2.0 7.0 0.00 0.05 0.00 94 1014.3
20260903104341 74 113 2.0 6.0 0.00 0.05 0.00 94 1013.9
20260903103840 74 43 2.0 6.0 0.00 0.05 0.00 94 1014.0
20260903103340 74 77 2.0 6.0 0.00 0.05 0.00 94 1013.6
20260903102841 74 94 1.0 6.0 0.00 0.05 0.00 94 1013.9
20260903102339 74 101 0.0 2.0 0.00 0.05 0.00 94 1013.5
20260903101838 74 91 0.0 1.0 0.00 0.05 0.00 94 1013.4
20260903101339 74 91 0.0 0.0 0.00 0.05 0.00 94 1013.2
20260903100840 74 92 0.0 1.0 0.00 0.05 0.00 94 1013.2
20260903100335 74 94 0.0 2.0 0.00 0.05 0.00 93 1013.2
20260903095833 74 94 0.0 2.0 0.00 0.05 0.00 93 1013.3
20260903095334 74 91 0.0 0.0 0.00 0.05 0.00 93 1013.3
20260903094834 74 86 0.0 1.0 0.00 0.05 0.00 93 1013.3
20260903094335 74 86 0.0 2.0 0.00 0.05 0.00 93 1013.4
20260903093835 74 86 0.0 2.0 0.00 0.05 0.00 93 1013.4
20260903093330 74 89 1.0 2.0 0.00 0.05 0.00 93 1013.5
20260903092830 75 82 1.0 2.0 0.00 0.05 0.00 93 1013.6
20260903092330 75 81 0.0 2.0 0.00 0.05 0.00 93 1013.6
20260903091329 75 203 0.0 0.0 0.00 0.05 0.00 92 1013.6